Home > Weather > Öhringen > Past weeks

Flag for Germany Weather for the Past 2 Weeks in Öhringen, Baden-Württemberg, Germany

Now
39 °F

Partly cloudy.


Feels Like: 34 °F
Forecast: 35 / 41 °F
Wind: 7 mph from West

Location: Niederstetten

Current Time: Feb 14, 2016 at 8:15:36 PM

Latest Report: Feb 14, 2016 at 7:20 PM


Visibility: N/A

Pressure: 29.36 "Hg

Humidity: 75%

Dew point: 32 °F

Location of ÖhringenLocation

Historic Weather in Öhringen — Graph

°F

Öhringen Temperature Yesterday

Maximum temperature yesterday: 39 °F (at 1:20 PM)
Minimum temperature yesterday: 30 °F (at 1:20 AM)
Average temperature yesterday: 36 °F

High & Low Weather Summary for the Past Weeks

 TemperatureHumidityPressure
High54 °F (Feb 6, 2:20 PM)100% (Jan 31, 8:20 AM)30.33 "Hg (Jan 31, 8:20 AM)
Low30 °F (Feb 3, 7:20 PM)54% (Feb 6, 2:20 PM)29.06 "Hg (Feb 14, 12:20 AM)
Average39 °F85%29.77 "Hg
* Reported Jan 30 6:20 PM — Feb 14 6:20 PM, Öhringen, Weather by CustomWeather, © 2016

Note: Actual official high and low records may vary slightly from our data, if they occured in-between our weather recording intervals... More about our weather records

Advertising

Öhringen Weather History for the Previous 24 Hours

 ConditionsComfort  
Time TempWeatherWind HumidityBarometerVisibility
6:20 PM
Sun, Feb 14
41 °FPassing clouds.7 mph76%29.33 "HgN/A
5:20 PM41 °FOvercast.10 mph76%29.30 "HgN/A
4:20 PM41 °FPartly sunny.12 mph81%29.27 "HgN/A
3:20 PM41 °FBroken clouds.9 mph81%29.21 "HgN/A
2:20 PM41 °FLight rain. Partly sunny.9 mph81%29.21 "HgN/A
1:20 PM43 °FMostly cloudy.9 mph76%29.18 "HgN/A
12:20 PM43 °FPartly sunny.14 mph76%29.18 "HgN/A
11:20 AM43 °FPartly sunny.13 mph76%29.15 "HgN/A
10:20 AM43 °FPartly sunny.14 mph76%29.15 "HgN/A
9:20 AM41 °FPartly sunny.10 mph87%29.12 "HgN/A
8:20 AM41 °FPartly sunny.15 mph81%29.12 "HgN/A
7:20 AM41 °FPartly cloudy.14 mph81%29.12 "HgN/A
6:20 AM41 °FPartly cloudy.18 mph87%29.09 "HgN/A
5:20 AM41 °FLight rain. Partly cloudy.17 mph87%29.09 "HgN/A
4:20 AM41 °FRain. Mostly cloudy.15 mph87%29.09 "Hg4 mi
3:20 AM41 °FLight rain. Mostly cloudy.20 mph87%29.09 "HgN/A
2:20 AM41 °FRain. Mostly cloudy.15 mph93%29.06 "HgN/A
1:20 AM39 °FLight rain. Mostly cloudy.17 mph93%29.06 "Hg5 mi
12:20 AM39 °FRain. Mostly cloudy.15 mph93%29.06 "Hg6 mi
11:20 PM
Sat, Feb 13
39 °FLight rain. Mostly cloudy.13 mph93%29.09 "HgN/A
10:20 PM39 °FRain. Mostly cloudy.15 mph93%29.09 "Hg5 mi
9:20 PM39 °FLight rain. Mostly cloudy.12 mph93%29.09 "HgN/A
8:20 PM39 °FPartly cloudy.15 mph93%29.12 "HgN/A
Weather by CustomWeather, © 2016

See weather overviewHow to use our weather pages